Home   Weather   Cheltenham   Past weeks

Flag for United Kingdom Past Weather in Cheltenham, England, United Kingdom — Yesterday and Last 2 Weeks

Now
49 °F

Cool.


Feels Like: 45 °F
Forecast: 57 / 74 °F
Wind: 9 mph from West

Location: Little Rissington

Current Time: Aug 20, 2017 at 5:29:02 am

Latest Report: Aug 20, 2017 at 4:00 am


Visibility: 19 mi

Pressure: 30.18 "Hg

Humidity: 94%

Dew Point: 48 °F

Location of CheltenhamLocation

Past Weather in Cheltenham — Graph

°F

Cheltenham Temperature Yesterday

Maximum temperature yesterday: 62 °F (at 3:00 pm)
Minimum temperature yesterday: 52 °F (at 7:00 am)
Average temperature yesterday: 56 °F

High & Low Weather Summary for the Past Weeks

 TemperatureHumidityPressure
High69 °F (Aug 15, 4:00 pm)100% (Aug 6, 8:00 am)30.27 "Hg (Aug 6, 8:00 am)
Low45 °F (Aug 13, 6:00 am)47% (Aug 13, 12:00 pm)29.78 "Hg (Aug 18, 5:00 am)
Average57 °F82%30.02 "Hg
* Reported Aug 5 3:00 am — Aug 20 3:00 am, Cheltenham. Weather by CustomWeather, © 2017

Note: Actual official high and low records may vary slightly from our data, if they occured in-between our weather recording intervals... More about our weather records

Advertising

Cheltenham Weather History for the Previous 24 Hours

Scroll right to see more
 ConditionsComfort  
Time TempWeatherWind HumidityBarometerVisibility
3:00 am
Sun, Aug 20
48 °FCool.6 mph94%30.18 "Hg19 mi
2:00 am50 °FCool.5 mph90%30.17 "Hg22 mi
1:00 am52 °FCool.5 mph86%30.16 "Hg22 mi
12:00 am54 °FCool.12 mph83%30.16 "Hg22 mi
11:00 pm
Sat, Aug 19
54 °FCool.10 mph81%30.14 "Hg25 mi
10:00 pm56 °FCool.9 mph76%30.13 "Hg25 mi
9:00 pm56 °FCool.12 mph73%30.12 "Hg28 mi
8:00 pm58 °FCool.14 mph71%30.10 "Hg28 mi
7:00 pm59 °FCool.12 mph65%30.09 "Hg28 mi
6:00 pm60 °FCool.15 mph63%30.07 "Hg28 mi
5:00 pm61 °FCool.15 mph60%30.07 "Hg31 mi
4:00 pm61 °FCool.16 mph60%30.06 "Hg31 mi
3:00 pm62 °FMild.16 mph59%30.04 "Hg31 mi
2:00 pm60 °FCool.18 mph61%30.04 "Hg28 mi
1:00 pm60 °FCool.16 mph68%30.03 "Hg31 mi
12:00 pm59 °FCool.14 mph74%30.03 "Hg31 mi
11:00 am59 °FCool.17 mph71%30.02 "Hg28 mi
10:00 am59 °FCool.17 mph72%30.01 "Hg31 mi
9:00 am56 °FCool.17 mph78%30.01 "Hg25 mi
8:00 am54 °FCool.12 mph86%30.00 "Hg25 mi
7:00 am52 °FCool.10 mph91%29.97 "Hg22 mi
6:00 am53 °FCool.13 mph90%29.96 "Hg25 mi
5:00 am52 °FCool.12 mph93%29.94 "Hg25 mi
Weather by CustomWeather, © 2017

See weather overviewHow to use our weather pages